• MPC Preparation (Info)

  • MPEC 2016-L01 : 2010 SD13

    The following Minor Planet Electronic Circular may be linked-to from your own Web pages, but must not otherwise be redistributed electronically.

    A form allowing access to any MPEC is at the bottom of this page.


    Read MPEC 2016-K43 Read MPEC 2016-L02


    M.P.E.C. 2016-L01                                Issued 2016 June 1, 03:50 UT
    
         The Minor Planet Electronic Circulars contain information on unusual
             minor planets and routine data on comets.  They are published
        on behalf of Division F of the International Astronomical Union by the
              Minor Planet Center, Smithsonian Astrophysical Observatory,
                              Cambridge, MA 02138, U.S.A.
    
                 Prepared using the Tamkin Foundation Computer Network
    
                                  MPC@CFA.HARVARD.EDU
                URL https://www.minorplanetcenter.net/    ISSN 1523-6714
    
                                       2010 SD13
    
                               Revision to MPEC 2010-S52
    
    Additional Observations:
         K10S13D 2C2016 02 11.53953812 39 46.925-03 21 11.64         23.5 RtEL001568
         K10S13D 2C2016 02 11.55039612 39 46.529-03 21 10.58         23.4 RtEL001568
         K10S13D 2C2016 02 11.56125712 39 46.132-03 21 09.55         23.5 RtEL001568
         K10S13D 2C2016 03 08.56431012 18 01.811-01 58 55.46         24.1 RtEL001568
         K10S13D 2C2016 03 08.57521812 18 01.127-01 58 52.66         23.3 RtEL001568
    
    Observer details:
    568 Mauna Kea.  Observer Y. Ramanjooloo.  Measurer D. J. Tholen.  2.24-m
        University of Hawaii reflector.
    
    Orbital elements:
    2010 SD13                                                Earth MOID = 0.1226 AU
    Epoch 2016 July 31.0 TT = JDT 2457600.5                 MPC
    M 104.71208              (2000.0)            P               Q
    n   0.22315640     Peri.   41.56989     +0.75291708     -0.65811402
    a   2.6919262      Node   359.57920     +0.54492612     +0.62457019
    e   0.6012241      Incl.   10.57776     +0.36901410     +0.42047357
    P   4.42           H   18.8           G   0.15           U   0
    Residuals in seconds of arc
    100927 E12  0.3+  0.3-    101009 H21  0.2-  0.2+    101120 I15  0.0   0.5-
    100927 E12  0.3+  0.1-    101010 H21  0.0   0.1+    101121 I15  0.4+  0.3-
    100927 E12  0.2-  0.3-    101010 H21  0.0   0.0     101121 I15  0.1+  0.4-
    100927 E12  0.1-  0.4+    101010 H21  0.0   0.2+    101121 I15  0.3-  0.0
    100927 E12  0.2-  0.3-    101010 H21  0.1-  0.1+    101128 H21  0.1-  0.0
    100927 E12  0.3+  0.3+    101010 H21  0.0   0.1+    101128 H21  0.1-  0.0
    100927 E12  0.4+  0.3-    101011 703  0.1+  0.3-    101128 448  0.1-  0.3-
    100927 E12  0.5+  0.2-    101011 703  0.6-  0.3-    101128 H21  0.2-  0.1-
    100928 H21  0.1+  0.3+    101011 703  0.3-  0.5-    101128 448  0.1-  0.5-
    100928 H21  0.2+  0.4+    101011 703  0.5+  0.1+    101128 448  0.4+  0.3-
    100928 H36  0.2-  0.0     101011 046  0.7+  0.6-    101128 H21  0.1+  0.2-
    100928 H21  0.2+  0.2+    101011 046  0.4-  0.9-    101128 448  0.2-  0.3-
    100928 H36  0.1-  0.1+    101011 046  1.3-  0.2+    101128 I15  0.1-  0.5-
    100928 H36  0.1-  0.2+    101011 046  0.4+  0.6+    101128 I15  0.1-  0.4-
    100928 H36  0.1+  0.2-    101011 046  0.1+  0.1-    101128 I15  0.2+  0.3-
    100928 E12  0.1+  0.2-    101012 046  1.4-  0.5+    101129 H21  0.4+  0.2+
    100928 E12  0.0   0.1-    101012 046  0.7-  0.2+    101129 H21  0.1+  0.1+
    100928 E12  0.1-  0.4-    101012 046  0.8-  1.1+    101129 H21  0.3+  0.2+
    100928 E12  0.2+  0.1-    101012 046  1.5-  0.5+    101129 H21  0.2+  0.2+
    100928 E12  0.5+  0.1+    101017 448  0.0   0.3-    101201 704  0.9+  0.7+
    100928 E12  0.2-  0.1+    101017 448  1.1-  0.1+    101201 704  0.8+  0.6+
    100928 595  0.5-  0.1-    101022 H21  0.0   0.0     101201 704  0.7+  0.4+
    100928 595  0.1-  0.2-    101022 H21  0.1-  0.1+    101201 704  1.1+  0.7+
    100929 704  0.0   0.5-    101022 H21  0.1+  0.2+    101201 704  1.1+  0.5+
    100929 704  0.4-  0.2-    101022 160  0.4+  0.0     101202 H21  0.4+  0.2-
    100929 704  0.1-  0.2+    101022 160  0.1+  0.2+    101202 H21  0.2+  0.0
    100929 704  0.1+  0.0     101022 160  0.2-  0.2+    101202 H21  0.2+  0.2-
    100929 704  0.2+  0.2+    101026 204  0.1+  0.1-    101202 704  1.1+  0.8+
    100930 H21  0.1+  0.4+    101026 204  0.0   0.3-    101202 704  0.0   0.2+
    100930 H21  0.1+  0.2+    101026 204  0.3+  0.2-    101202 704  0.2+  0.2-
    100930 H21  0.2+  0.2+    101027 H21  0.2+  0.1-    101202 704  0.4-  0.2+
    100930 H21  0.1+  0.1+    101027 H21  0.2+  0.1-    101202 I15  0.1-  0.7-
    100930 704  0.5+  0.1-    101027 H21  0.2-  0.1-    101202 I15  0.1-  0.5-
    100930 704  0.0   0.3-    101027 H21  0.1-  0.2-    101202 I15  0.3+  0.6-
    100930 704  1.0+  0.0     101028 H21  0.1+  0.0     101206 H45  0.3+  0.7-
    100930 E12  0.0   0.1-    101028 H21  0.3+  0.1-    101206 H45  0.4+  0.5-
    100930 E12  0.3-  0.0     101028 H21  0.0   0.2+    101206 H45  0.1+  0.2-
    100930 E12  0.0   0.2-    101030 H21  0.0   0.1+    101206 H45  0.0   0.6-
    101001 H26  0.3-  0.1-    101030 H21  0.9-  0.4-    101206 H45  0.1+  0.5-
    101001 H26  0.6+  0.6-    101030 H21  0.0   0.2-    101206 H45  0.1-  0.6-
    101001 H26  0.4+  0.6-    101030 H21  0.2+  0.2+    101210 160  0.3-  0.2-
    101001 H26  0.1+  0.4-    101102 704  1.1-  0.3+    101210 160  0.4-  0.4-
    101001 H26  0.3-  0.4+    101102 704  0.2-  0.0     101210 160  0.1+  0.2-
    101001 H21  0.1+  0.3-    101102 704  1.7-  0.3+    101211 160  0.1-  0.2-
    101001 H21  0.1+  0.1+    101102 704  0.2-  0.3+    101211 160  0.1-  0.2-
    101001 H21  0.2+  0.1-    101102 704  0.5-  0.2+    101211 160  0.2-  0.4-
    101001 H21  0.0   0.3-    101103 H21  0.1+  0.0     101214 H21  0.0   0.0
    101001 704  0.5+  0.4+    101103 H21  0.0   0.0     101214 H21  0.0   0.2+
    101001 704  0.1-  1.0+    101103 H21  0.1+  0.6-    101214 H21  0.1+  0.1-
    101001 704  0.3+  0.8+    101103 704  0.8-  1.8+    101215 H21  0.1-  0.0
    101001 704  0.0   0.4+    101103 704  1.5-  0.4-    101215 H21  0.0   0.0
    101001 704  0.1-  0.9+    101103 704  0.5-  0.2+    101215 H21  0.0   0.3-
    101001 704  0.3-  0.3+    101103 704  0.4-  0.6+    101215 H21  0.0   0.1+
    101001 704  0.6+  0.4+    101104 704  0.3-  0.6+    101219 H21  0.2+  0.2-
    101001 704  0.1-  1.0+    101104 704  0.4-  0.4+    101219 H21  0.1-  0.2+
    101003 H21  0.2+  0.2+    101104 704  0.3-  1.1+    101219 H21  0.3-  0.5+
    101003 H21  0.1+  0.0     101104 704  0.3-  0.5+    101219 H21  0.8-  0.6+
    101003 H21  0.1+  0.1+    101104 704  0.5-  0.3+    101227 704  0.3+  0.4+
    101003 H21  0.1+  0.0     101104 160  0.1-  0.0     101227 704  0.4+  0.5+
    101003 H21  0.0   0.1+    101104 160  0.3+  0.3-    101227 704  0.1-  0.5+
    101003 H21  0.1+  0.0     101104 160  0.2+  0.4-    101227 704  0.3+  0.4+
    101004 H26  0.2+  0.2-    101105 160  0.0   0.3-    101227 704  0.0   0.1-
    101004 H26  0.4-  0.1-    101105 160  0.1-  0.7-    101230 046  0.0   0.2-
    101004 H21  0.2-  0.1+    101105 160  0.3-  0.4-    101230 046  0.0   0.1-
    101004 H26  0.2+  0.5-    101106 703  0.3-  0.3-    101230 046  0.0   0.5+
    101004 H26  0.2+  0.3-    101106 703  0.2-  0.0     101230 046  0.2+  0.2+
    101004 H21  0.1-  0.1+    101106 703  0.1+  0.2-    101230 046  0.5+  0.5+
    101004 H26  0.1+  0.5+    101106 703  0.3-  0.5-    101230 046  0.1-  0.3+
    101004 H21  0.1+  0.0     101109 H21  0.1+  0.2+    101231 160  0.4+  0.0
    101004 H21  0.2+  0.3+    101109 H21  0.1+  0.3+    101231 160  0.0   0.1+
    101004 H21  0.1-  0.0     101109 H21  0.3+  0.2+    101231 160  0.0   0.2+
    101004 I19  0.2-  0.0     101110 046  0.5-  0.5-    110101 160  0.1-  0.0
    101004 I19  0.1+  0.0     101110 046  1.1+  0.6-    110101 160  0.2-  0.1-
    101004 I19  0.3-  0.3+    101110 046  0.6+  0.2+    110101 160  0.3-  0.4+
    101004 I19  0.2-  0.3-    101110 046  0.3-  0.4+    110101 204  0.1-  0.1-
    101005 H21  0.2-  0.2+    101110 046  1.3-  0.3-    110101 204  0.1-  0.2-
    101005 H21  0.3-  0.0     101111 H21  0.2+  0.0     110101 204  0.0   0.2-
    101005 H21  0.0   0.2-    101111 H21  0.1+  0.2-    110101 204  0.2-  0.2-
    101005 H21  0.2+  0.1+    101111 H21  0.1-  0.2-    110101 204  0.0   0.3-
    101006 H21  0.0   0.0     101111 H21  0.1+  0.1+    110105 H21  0.3-  0.0
    101006 H21  0.0   0.2-    101111 H21  0.2+  0.0     110105 H21  0.1+  0.1+
    101006 H21  0.3-  0.2+    101111 703  0.4-  0.2+    110105 H21  0.1-  0.1-
    101007 704  2.1-  1.7+    101111 703  0.1-  0.7+    110109 H21  0.0   0.2+
    101007 704  0.0   0.1-    101111 703  0.4-  0.6+    110109 H21  0.3-  0.1+
    101007 704  0.4-  0.2-    101115 H21  0.1-  0.0     110109 H21  0.0   0.0
    101007 704  0.6-  0.6-    101115 H21  0.0   0.1+    110117 H21  0.4-  0.3-
    101007 704  0.6-  0.2+    101115 H21  0.0   0.0     110117 H21  0.4-  0.2-
    101008 704  0.4-  0.2+    101115 H21  0.0   0.2-    110117 H21  0.0   0.5-
    101008 704  0.3-  1.4+    101119 H21  0.2+  0.1+    160211 568  0.1+  0.1+
    101008 704  0.3-  1.4+    101119 H21  0.1+  0.1+    160211 568  0.1+  0.1+
    101008 704  0.6-  0.9+    101119 H21  0.2+  0.1-    160211 568  0.0   0.0
    101008 704  0.3-  0.8+    101119 H21  0.6+  0.2+    160308 568  0.0   0.1+
    101009 H21  0.1-  0.2+    101119 I15  0.2+  0.2+    160308 568  0.0   0.0
    101009 H21  0.0   0.2+    101120 I15  0.3-  0.2-
    
    Ephemeris:
    2010 SD13                a,e,i = 2.69, 0.60, 11                  q = 1.0735
    Date    TT    R. A. (2000) Decl.     Delta      r     Elong.  Phase     V
    2016 05 02    11 33 01.8 +01 11 28   2.6402  3.3932   131.5    12.8    24.3
    ...
    2016 05 17    11 29 58.3 +01 14 47   2.8904  3.4594   116.3    15.2    24.6
    ...
    2016 05 25    11 30 08.6 +01 06 33   3.0344  3.4935   108.7    15.9    24.8
    ...
    2016 05 31    11 31 00.5 +00 56 14   3.1455  3.5186   103.2    16.3    24.9
    2016 06 01    11 31 12.6 +00 54 11   3.1642  3.5227   102.3    16.3    24.9
    2016 06 02    11 31 25.7 +00 52 03   3.1830  3.5268   101.4    16.4    24.9
    ...
    2016 06 08    11 33 03.3 +00 37 22   3.2962  3.5513    96.1    16.5    25.0
    ...
    2016 06 16    11 36 00.9 +00 13 09   3.4479  3.5833    89.3    16.5    25.1
    ...
    2016 07 01    11 43 37.6 -00 44 34   3.7293  3.6412    77.2    15.8    25.3
    
                           (Last issue was M.P.E.C. 2016-K43)
    
    Gareth V. Williams           (C) Copyright 2016 MPC           M.P.E.C. 2016-L01
    

    Read MPEC 2016-K43 Read MPEC 2016-L02


    MPEC number:

    Enter an MPEC number in one of the following forms:

    • 1997-B01 (the full form)
    • J97B01 (the packed version of the full form)
    • B01 (the abbreviated form)